sat.trackr.live / text

‹ back to catalog

STARLINK-35302

NORAD 65845 · 2025-221Y

PAYLOAD ACTIVE UNKNOWN

§ Identity

Operator
Country
US
Launch date
2025-09-29
Launch site
AFWTR
Launch vehicle
Mass (kg)
RCS (m²)

Purposes: comms

External: N2YO · Heavens-Above · Gunter

§ Orbital elements

Epoch: 2026-05-25T03:02:49.815744Z

Period
93.85 min
Inclination
53.1604°
Eccentricity
0.0001250
Mean motion
15.34404676 rev/d
Perigee alt
461.8 km
Apogee alt
463.5 km
Semi-major
6,840.8 km
B*
5.7331e-4
RAAN
92.7754°
Arg perigee
94.0587°
Mean anomaly
266.0559°
Rev number
3,644

§ Raw data

STARLINK-353021 65845U 25221Y   26145.12696546  .00019046  00000+0  57331-3 0  99982 65845  53.1604  92.7754 0001250  94.0587 266.0559 15.34404676 36444

JSON: /api/v1/satellites/65845 · /tle

For live sub-satellite position, see the globe view (requires WebGL).

§ Visibility from observer

Set your observer location to see the next 7 days of passes ≥ 10°. The values pass through the URL so the page stays shareable.

No JS? Fill the form by hand. The geolocation button needs JavaScript.